Location: C&O Canal National Historical Park
(39.6184°N, 77.9938°W)
Time: 00:34:27
(UTC-04:00)

ISS - Visible Passes

Search period start: 25 March 2019 00:00
Search period end: 04 April 2019 00:00
Orbit: 408 x 411 km, 51.6° (Epoch: 25 March)

Date Brightness Start Highest point End Pass type
(mag) Time Alt. Az. Time Alt. Az. Time Alt. Az.
25 Mar -1.0 21:30:05 10° NW 21:31:45 13° NNW 21:32:45 12° N visible
26 Mar -1.1 20:38:39 10° WNW 20:40:52 16° NNW 20:43:05 10° NNE visible
27 Mar -0.8 21:26:45 10° NNW 21:27:35 11° N 21:28:23 10° N visible
28 Mar -1.0 20:35:14 10° NW 20:36:36 12° N 20:37:57 10° NNE visible
29 Mar -0.9 21:22:34 10° N 21:23:23 11° N 21:24:12 10° NNE visible
30 Mar -0.9 20:31:43 10° NNW 20:32:21 10° N 20:33:00 10° N visible
30 Mar -0.6 22:07:50 10° NNW 22:08:17 12° NNW 22:08:17 12° NNW visible
31 Mar -1.2 21:17:26 10° NNW 21:19:06 13° NNE 21:19:36 13° NNE visible
01 Apr -1.1 20:26:59 10° NNW 20:28:05 11° N 20:29:12 10° NNE visible
01 Apr -1.0 22:02:39 10° NNW 22:03:41 17° NNW 22:03:41 17° NNW visible
02 Apr -1.8 21:12:11 10° NNW 21:14:40 19° NNE 21:15:00 19° NNE visible
03 Apr -1.4 20:21:44 10° NNW 20:23:42 15° NNE 20:25:41 10° NE visible
03 Apr -1.5 21:57:34 10° NW 21:59:06 24° NW 21:59:06 24° NW visible
